Theta_e
289 290 290 290 291 291 291 292 292 293 295 295 296 295 295 294 295 296 296 296 295 295 296 295 293 295 296 296 297 298 298 298 294 297 299 299 298 296 296 296 296 296 296
287 287 286 287 287 287 287 288 289 290 292 292 292 291 290 290 291 291 291 292 291 291 290 290 289 291 290 291 292 292 292 292 291 289 292 293 293 294 293 291 292 292 292
286 285 285 284 285 285 285 286 287 288 289 290 289 288 287 287 287 289 289 289 288 288 288 286 286 287 287 288 289 288 288 289 289 288 288 290 290 290 288 288 288 288 289
284 284 283 283 283 284 284 285 285 287 287 287 287 287 287 286 285 286 287 287 286 286 286 284 284 283 284 284 286 285 286 286 286 286 285 286 286 286 285 283 282 284 284
283 282 282 283 283 283 283 283 284 284 285 285 285 286 285 285 284 283 284 284 284 284 284 284 282 282 283 283 283 282 283 283 283 282 282 282 281 279 279 280 278 279 281
281 281 281 281 281 281 282 282 283 283 283 283 283 283 282 282 283 282 284 283 283 283 281 283 282 281 282 283 282 282 282 279 279 278 278 277 277 277 277 276 276 275 274
279 279 279 279 279 279 280 280 280 281 281 281 281 281 280 281 282 281 281 281 281 280 280 279 278 280 281 281 281 281 280 280 279 278 276 276 275 276 276 275 275 275 275
276 276 277 277 277 277 277 277 278 278 278 278 278 278 278 279 281 280 280 280 279 278 278 278 278 279 280 280 278 277 277 278 278 278 277 276 276 277 277 276 275 275 276
274 274 275 275 275 275 275 275 276 276 277 276 276 276 276 277 280 280 279 279 278 277 277 277 277 278 279 280 277 276 275 276 279 279 278 278 278 278 278 275 272 271 269
272 272 273 274 274 273 273 273 274 275 274 275 275 275 275 275 278 279 279 278 277 276 277 277 277 278 279 278 276 275 274 275 275 275 275 276 276 276 277 276 274 269 269
271 271 271 272 272 272 272 273 273 273 273 273 273 273 273 273 275 277 278 277 276 276 276 275 276 278 278 277 277 275 274 276 274 273 273 273 274 274 275 275 274 271 268
270 269 269 270 271 271 271 271 272 272 272 272 272 272 272 272 273 275 276 277 276 275 275 275 276 278 278 277 276 276 276 274 272 271 271 271 271 272 272 272 271 271 271
268 267 268 269 270 270 270 270 270 271 271 271 271 271 271 272 273 273 274 276 276 275 276 276 277 277 276 275 274 274 272 272 271 269 269 270 271 271 270 270 270 269 269
266 266 267 267 268 268 270 270 270 270 270 270 270 270 271 271 272 273 274 275 276 276 276 276 275 275 274 273 271 272 272 271 270 268 269 270 270 269 268 269 267 267 266
266 267 267 268 268 267 268 268 269 269 270 269 270 270 269 269 271 273 273 274 274 274 274 273 272 270 269 270 270 270 270 270 269 269 268 267 267 267 267 268 267 266 264
266 266 267 267 267 267 267 267 267 268 269 269 270 270 270 271 272 273 274 274 275 275 271 269 269 268 267 268 268 268 268 267 268 268 266 266 266 266 265 266 265 264 263
267 267 266 266 266 266 266 266 266 267 268 268 269 269 270 271 272 272 273 274 274 273 268 267 266 266 266 266 266 266 266 267 265 265 266 266 266 265 264 264 264 264 263
265 262 266 266 266 265 265 265 264 264 265 266 268 268 269 269 270 271 272 272 267 267 265 264 263 264 264 264 264 264 265 265 265 265 265 264 264 263 263 263 263 262 262
263 264 264 265 265 264 264 264 264 264 264 264 265 267 267 267 268 269 269 265 263 263 264 263 263 263 263 263 263 263 263 262 263 262 262 262 263 263 263 263 263 263 262
262 262 262 264 264 263 264 263 264 264 264 264 264 264 265 263 264 266 266 264 263 262 263 262 262 261 261 261 261 261 261 261 262 262 263 263 263 263 263 263 263 262 262
263 263 261 262 263 263 263 263 264 263 263 263 263 265 267 264 265 265 265 263 262 262 261 261 261 261 260 260 260 260 260 261 261 262 262 262 262 262 263 263 263 263 263
264 263 262 262 263 263 263 263 263 262 262 262 263 264 268 264 263 262 263 263 263 262 262 261 260 260 260 260 260 259 259 259 260 260 261 261 261 261 262 261 262 262 263
263 263 263 262 262 261 261 261 261 262 262 263 263 263 263 262 262 262 262 262 262 261 261 260 259 259 259 259 259 259 258 258 259 260 259 259 259 260 260 260 261 261 262
262 262 262 263 262 262 262 262 263 262 262 262 262 263 263 263 262 262 262 261 261 261 260 260 259 258 258 258 258 259 259 259 259 259 259 259 258 259 259 259 260 261 261
262 262 262 262 262 262 261 261 262 262 263 263 263 263 263 263 262 262 261 261 260 259 259 259 258 258 257 256 256 256 257 259 258 258 258 257 256 256 257 259 260 261 263
262 261 261 262 262 262 262 262 262 263 263 263 263 263 263 263 262 262 262 261 260 259 258 258 258 257 257 257 257 257 258 260 259 259 259 259 260 261 263 265 266 266 268
Wind_Speed
12 12 12 11 12 11 11 11 10 10 10 11 10 10 10 10 10 9 8 8 9 8 7 7 7 7 5 5 4 4 4 5 6 6 7 9 9 10 9 9 9 9 8
11 11 12 12 12 12 12 11 10 11 10 10 11 11 11 10 10 10 10 9 9 9 9 8 9 7 8 7 5 7 6 6 5 7 7 6 8 9 11 12 10 9 10
10 11 12 12 12 12 11 11 11 10 11 11 11 11 11 11 10 9 8 8 9 9 9 9 9 9 8 6 6 6 5 5 5 5 6 6 6 7 9 9 10 11 10
10 11 12 12 11 11 10 10 10 10 10 10 10 11 11 11 11 9 8 8 8 8 9 9 9 10 9 9 7 7 7 5 5 5 5 6 6 9 8 9 11 9 11
10 11 11 10 10 10 10 10 10 10 9 9 9 10 11 11 10 9 7 8 7 8 8 8 10 9 11 11 7 8 8 6 6 6 6 6 7 8 9 9 10 11 11
10 10 9 9 9 10 9 9 9 10 9 9 9 10 11 9 14 13 8 6 7 7 7 6 7 8 9 10 11 10 9 8 8 6 5 7 8 8 8 9 9 11 9
9 9 9 8 9 9 8 8 8 8 8 9 9 9 10 9 14 11 9 6 6 7 7 6 6 5 8 7 8 9 9 9 9 7 8 8 9 10 10 11 10 10 10
8 7 7 7 7 7 7 7 7 7 7 7 8 7 8 9 13 11 8 7 6 6 7 7 6 7 9 9 8 7 7 5 6 6 7 8 8 9 9 10 12 12 9
7 6 6 6 6 6 6 6 5 5 6 6 6 7 7 8 12 12 7 6 6 5 5 6 6 7 11 13 9 7 6 6 8 10 12 13 13 14 11 7 7 9 10
5 5 5 5 5 5 5 4 4 5 5 5 6 6 6 6 11 11 9 5 5 4 3 4 4 7 11 12 8 7 6 7 9 8 8 9 9 9 12 6 7 8 8
4 4 4 4 5 4 4 4 4 5 5 5 5 5 6 6 7 11 11 5 5 4 4 4 3 8 10 11 10 5 8 9 9 6 6 6 6 6 5 6 8 7 7
3 3 3 3 3 3 4 4 4 4 4 4 3 3 3 3 5 7 9 9 7 6 5 4 5 11 13 13 9 11 13 9 3 4 5 6 6 6 6 6 8 8 8
4 3 3 3 3 3 3 3 3 3 2 2 2 1 1 2 1 4 6 6 6 6 6 9 12 12 14 10 11 13 7 3 4 5 5 6 6 7 8 8 7 8 8
4 3 3 2 3 2 1 1 1 1 1 1 1 2 2 2 2 2 4 5 6 6 9 6 7 11 12 10 6 6 4 4 4 5 6 6 7 6 7 7 8 8 9
4 3 3 2 1 2 1 1 0 1 1 2 2 2 3 3 3 8 8 5 5 8 6 3 4 4 5 4 4 4 4 4 4 5 5 7 7 7 8 7 7 8 9
5 4 3 3 2 1 1 1 2 4 4 5 4 3 4 8 10 11 12 13 13 15 2 5 5 5 6 5 5 5 5 5 4 4 6 7 8 8 9 8 8 8 10
4 4 4 2 3 3 2 2 2 2 6 7 6 6 8 9 10 12 13 14 13 8 5 5 6 5 6 5 5 5 6 5 2 5 7 7 7 8 9 9 9 9 10
3 1 3 3 3 3 2 2 1 2 3 3 3 6 8 7 10 12 12 9 4 4 3 5 6 5 5 6 5 5 6 6 5 6 6 7 8 8 9 9 9 10 10
5 4 3 3 3 2 2 3 2 3 4 4 4 4 3 8 12 10 7 2 3 4 4 5 5 5 5 5 5 6 6 6 6 6 7 7 8 8 10 10 11 14 14
4 1 2 4 4 4 4 3 3 4 4 4 4 4 3 3 4 4 2 3 4 5 5 5 5 5 5 5 6 6 6 7 7 7 7 8 8 8 10 11 10 11 11
4 5 5 4 4 4 4 4 4 3 4 4 5 5 9 6 6 6 5 4 5 5 6 6 6 6 5 5 5 6 7 8 8 8 7 8 8 9 9 10 11 12 13
5 5 5 5 4 4 4 4 4 4 5 5 5 6 12 5 6 6 6 6 6 6 5 6 6 6 6 6 7 7 8 9 8 8 8 8 8 9 10 10 11 12 13
5 5 5 4 5 5 5 5 5 6 6 7 6 6 5 6 6 7 7 6 6 6 6 6 7 7 7 7 7 8 9 9 8 7 8 9 9 10 10 11 12 13 12
6 6 6 5 5 6 6 6 6 7 7 7 7 7 7 7 7 8 7 7 7 7 6 6 7 10 9 8 8 8 9 9 8 9 10 10 11 12 11 11 12 16 15
6 6 6 6 6 6 6 7 8 8 8 8 8 8 8 8 8 8 8 7 7 7 8 7 7 10 12 13 13 13 14 18 15 14 9 12 15 17 14 12 14 15 18
8 8 7 7 7 7 8 8 9 8 9 8 9 9 9 8 8 8 8 7 7 8 9 7 9 12 13 12 14 15 16 18 16 16 11 11 13 13 13 15 19 15 17
Wind_Direction
65 68 68 66 67 66 66 65 65 62 59 61 59 57 53 49 43 51 54 47 55 49 41 43 37 26 27 17 4 12 356 354 311 326 345 354 356 352 352 357 344 336 338
62 67 69 70 69 68 66 63 62 66 62 66 66 63 56 51 49 51 51 51 54 52 44 43 36 29 32 22 22 22 20 356 335 324 331 340 345 352 350 342 339 339 335
65 67 67 65 66 66 64 61 60 65 65 66 67 65 59 52 47 48 56 62 60 56 52 51 39 33 33 18 30 19 19 354 345 328 321 335 339 351 349 338 338 333 325
64 66 63 58 60 62 62 61 61 61 65 65 64 64 60 53 44 38 44 56 63 59 63 53 49 44 34 17 25 14 8 354 344 339 331 336 346 7 348 340 330 329 325
68 65 64 60 58 60 60 61 63 61 62 60 62 61 57 51 38 25 40 48 52 68 58 66 52 31 34 33 22 13 9 2 352 349 346 343 345 348 349 338 323 324 327
67 65 61 59 58 56 54 54 60 62 58 61 60 61 58 52 40 35 30 52 53 57 52 53 57 40 23 27 27 23 30 14 10 355 352 345 349 344 342 332 328 335 335
64 60 58 59 58 53 51 52 52 58 59 57 57 59 58 48 36 36 28 56 56 52 51 44 49 39 30 17 19 32 28 24 29 357 354 351 336 341 334 329 329 321 312
71 61 56 62 67 64 65 59 55 53 61 60 57 57 59 45 36 34 37 54 59 52 58 36 38 30 24 17 10 17 13 12 11 355 346 332 324 325 327 324 316 309 307
75 67 53 53 62 63 66 62 56 71 72 75 68 62 64 47 32 37 29 41 39 44 53 51 25 12 16 14 1 359 353 348 350 342 331 323 322 324 324 319 322 326 320
69 69 60 61 69 72 69 63 55 68 71 69 76 71 58 53 28 25 27 19 27 12 16 21 22 349 7 1 350 342 338 336 337 335 329 331 332 324 326 327 327 321 323
80 74 65 62 66 63 66 55 61 68 74 69 71 58 53 36 23 16 8 21 5 348 348 342 333 335 348 341 341 323 331 331 334 334 325 318 314 316 321 326 329 324 309
99 92 81 59 60 75 81 75 62 75 78 69 69 72 61 37 25 5 360 348 357 336 327 324 309 334 326 322 327 321 329 340 317 317 316 313 319 318 318 320 302 284 275
122 103 97 71 63 63 76 78 86 75 75 66 48 41 27 17 356 342 321 307 329 321 315 303 312 317 316 318 314 318 327 320 315 315 306 302 308 306 305 293 287 282 275
136 134 127 130 102 69 75 68 79 87 83 51 12 348 336 319 320 329 331 330 333 326 320 328 311 302 301 297 300 302 303 299 302 286 291 300 299 303 296 300 300 305 302
152 156 147 132 143 111 52 30 2 122 330 332 328 325 320 310 317 314 310 300 308 297 320 286 290 296 293 290 285 284 282 277 288 283 300 301 299 299 296 297 295 301 291
168 173 171 168 168 164 213 206 216 271 280 284 284 296 305 292 301 300 302 306 300 298 326 293 287 286 287 287 288 288 285 283 285 316 303 286 292 296 295 296 292 285 290
197 163 159 198 185 182 195 227 250 217 259 269 261 273 289 291 303 306 303 299 302 317 297 279 282 285 277 288 281 276 284 290 317 276 274 287 293 292 297 292 291 288 285
183 73 191 179 193 195 199 210 250 276 293 291 269 287 288 297 305 300 299 305 315 291 262 270 270 273 277 277 283 287 286 286 280 281 285 291 288 286 289 286 285 286 286
193 185 197 190 198 209 220 217 234 250 257 274 293 286 270 305 306 296 298 298 277 273 267 263 264 273 277 281 280 277 273 275 279 285 278 273 278 279 280 281 284 285 283
215 227 199 200 199 216 219 223 237 247 267 278 283 283 312 317 299 280 235 242 254 257 261 263 265 264 265 266 269 272 276 275 272 270 272 276 279 275 278 283 284 286 283
194 188 210 221 221 219 229 226 238 248 254 259 265 269 264 261 282 281 279 268 261 264 269 271 272 267 265 265 264 266 267 270 269 270 271 275 276 278 278 280 282 282 282
201 202 194 217 220 225 231 236 244 250 253 258 266 266 276 277 268 266 262 257 252 249 252 261 266 264 265 263 262 264 265 266 269 268 270 276 282 283 284 283 282 281 281
212 214 217 221 228 236 240 238 245 247 249 249 253 258 250 250 252 254 256 255 251 247 244 247 259 265 259 257 252 252 258 261 264 271 279 282 283 282 283 282 283 282 280
208 214 221 223 223 227 234 240 242 239 250 259 258 254 251 249 250 252 253 253 249 244 237 238 241 250 261 258 259 258 258 261 262 266 269 275 277 282 277 276 277 278 278
207 213 220 225 227 226 233 239 243 243 243 242 245 245 246 245 246 247 249 248 246 243 242 238 243 250 253 255 256 258 261 268 265 265 272 270 266 268 266 269 272 273 272
206 213 221 222 224 226 230 235 238 239 241 241 242 243 243 242 243 245 245 243 248 251 249 245 243 243 252 259 262 263 265 266 266 263 251 251 259 265 268 274 281 283 282